Tucumcari, NM

3:32 AM MDT on August 22, 2017 (GMT -0600)
Tucumcari Municipal

Weather History for KTCC - February, 2014

Change the Weather History Date:

Friday, February 21, 2014

  Actual Average Record
Temperature  
Mean Temperature 46 °F -  
Max Temperature 66 °F 59 °F 80 °F (1981)
Min Temperature 25 °F 29 °F 8 °F (1955)
Degree Days  
Heating Degree Days 20    
Moisture  
Dew Point 2 °F    
Average Humidity 18    
Maximum Humidity 39    
Minimum Humidity 9    
Precipitation  
Precipitation 0.00 in - - ()
Sea Level Pressure  
Sea Level Pressure 29.89 in    
Wind  
Wind Speed 8 mph (West)    
Max Wind Speed 17 mph    
Max Gust Speed -    
Visibility 10 miles    
Events      
Averages and records for this station are not official NWS values.
T = Trace of Precipitation, MM = Missing Value Source: NWS Daily Summary

Daily Weather History Graph

Daily Weather History Graph

Search for Another Location

Airport or City:

Trip Planner

Search our weather history database for the weather conditions in past years. The results will help you decide how hot, cold, wet, or windy it might be!

Date:

Astronomy

Feb. 21, 2014 Rise Set
Actual Time 6:33 AM MST 5:42 PM MST
Civil Twilight 6:08 AM MST 6:08 PM MST
Nautical Twilight 5:38 AM MST 6:38 PM MST
Astronomical Twilight 5:09 AM MST 7:07 PM MST
Moon No Moon Rise 10:14 AM MST (2/21)
Length of Visible Light 12h 00m
Length of Day
11h 08m
Waning Gibbous, 60% of the Moon is Illuminated
Feb 21
Waning Gibbous
Feb 22
Last Quarter
Mar 1
New
Mar 8
First Quarter
Mar 16
Full

Hourly Weather History & Observations

Time (MST) Temp. Windchill Dew Point Humidity Pressure Visibility Wind Dir Wind Speed Gust Speed Precip Events Conditions
12:53 AM 28.9 °F 22.8 °F 5.0 °F 36% 30.02 in 10.0 mi SSE 5.8 mph - N/A   Clear
1:53 AM 25.0 °F - 3.0 °F 39% 29.99 in 10.0 mi Calm Calm - N/A   Clear
2:53 AM 28.0 °F 20.0 °F -0.9 °F 29% 29.96 in 10.0 mi West 8.1 mph - N/A   Clear
3:53 AM 25.0 °F 18.1 °F -2.0 °F 31% 29.95 in 10.0 mi WNW 5.8 mph - N/A   Clear
4:53 AM 30.0 °F 22.4 °F -5.1 °F 22% 29.94 in 10.0 mi WNW 8.1 mph - N/A   Clear
5:53 AM 28.0 °F 22.8 °F -4.0 °F 25% 29.97 in 10.0 mi WNW 4.6 mph - N/A   Clear
6:53 AM 30.0 °F 22.4 °F -5.1 °F 22% 29.99 in 10.0 mi West 8.1 mph - N/A   Clear
7:53 AM 42.1 °F 34.9 °F -2.0 °F 16% 29.98 in 10.0 mi WSW 13.8 mph - N/A   Clear
8:53 AM 48.0 °F - -0.9 °F 13% 29.97 in 10.0 mi West 17.3 mph - N/A   Clear
9:53 AM 54.0 °F - -0.9 °F 11% 29.95 in 10.0 mi WSW 17.3 mph - N/A   Clear
10:53 AM 57.9 °F - 1.0 °F 10% 29.93 in 10.0 mi West 13.8 mph - N/A   Clear
11:53 AM 61.0 °F - 1.9 °F 9% 29.89 in 10.0 mi WSW 13.8 mph - N/A   Clear
12:53 PM 64.9 °F - 3.9 °F 9% 29.85 in 10.0 mi WSW 15.0 mph - N/A   Clear
1:53 PM 64.9 °F - 3.9 °F 9% 29.83 in 10.0 mi WSW 6.9 mph - N/A   Clear
2:53 PM 66.0 °F - 5.0 °F 9% 29.79 in 10.0 mi SSE 6.9 mph - N/A   Clear
3:53 PM 66.0 °F - 5.0 °F 9% 29.78 in 10.0 mi SE 4.6 mph - N/A   Clear
4:53 PM 64.9 °F - 6.1 °F 10% 29.75 in 10.0 mi East 8.1 mph - N/A   Clear
5:53 PM 60.1 °F - 7.0 °F 12% 29.78 in 10.0 mi WSW 12.7 mph - N/A   Clear
6:53 PM 55.0 °F - 7.0 °F 15% 29.80 in 10.0 mi WNW 9.2 mph - N/A   Clear
7:53 PM 48.9 °F - 3.9 °F 16% 29.81 in 10.0 mi WNW 11.5 mph - N/A   Clear
8:53 PM 46.9 °F - 3.9 °F 17% 29.83 in 10.0 mi NW 12.7 mph - N/A   Clear
9:53 PM 45.0 °F 38.2 °F 3.0 °F 18% 29.83 in 10.0 mi North 15.0 mph - N/A   Clear
10:53 PM 43.0 °F 36.8 °F 3.0 °F 19% 29.83 in 10.0 mi WNW 11.5 mph - N/A   Clear
11:53 PM 41.0 °F 39.0 °F 5.0 °F 23% 29.83 in 10.0 mi Variable 3.5 mph - N/A   Clear